Boulder City, NV

5:28 PM PST on November 18, 2019 (GMT -0800)
Boulder City

Weather History for KBVU - September, 2019

Change the Weather History Date:

Thursday, September 26, 2019

  Actual Average (KLAS) Record (KLAS)
Temperature  
Mean Temperature 78 °F -  
Max Temperature 84 °F 89 °F 105 °F (1947)
Min Temperature 71 °F 62 °F 45 °F (1948)
Cooling Degree Days 12    
Growing Degree Days 28 (Base 50)    
Moisture  
Dew Point 55 °F    
Average Humidity 48    
Maximum Humidity 64    
Minimum Humidity 35    
Precipitation  
Precipitation 0.00 in - - ()
Sea Level Pressure  
Sea Level Pressure 29.93 in    
Wind  
Wind Speed 9 mph ()    
Max Wind Speed 21 mph    
Max Gust Speed 23 mph    
Visibility 10.0 miles    
Events      
Averages and records for this station are not official NWS values.
T = Trace of Precipitation, MM = Missing Value Source: Averaged Metar Reports

Daily Weather History Graph

Daily Weather History Graph

Search for Another Location

Airport or City:

Astronomy

Sep. 26, 2019 Rise Set
Actual Time 6:30 AM PDT 6:30 PM PDT
Civil Twilight 6:04 AM PDT 6:56 PM PDT
Nautical Twilight 5:35 AM PDT 7:25 PM PDT
Astronomical Twilight 5:04 AM PDT 7:55 PM PDT
Moon 3:50 AM PDT (9/26) 5:40 PM PDT (9/26)
Length of Visible Light 12h 51m
Length of Day
12h 00m
Waning Crescent, 6% of the Moon is Illuminated
Sep 26
Waning Crescent
Sep 28
New
Oct 5
First Quarter
Oct 13
Full
Oct 21
Last Quarter

Hourly Weather History & Observations

Time (PDT) Temp. Heat Index Dew Point Humidity Pressure Visibility Wind Dir Wind Speed Gust Speed Precip Events Conditions
12:15 AM 77.0 °F - 53.6 °F 44% 29.91 in 10.0 mi ENE 3.5 mph - N/A   Clear
12:35 AM 77.0 °F - 55.4 °F 47% 29.91 in 10.0 mi ESE 5.8 mph - N/A   Partly Cloudy
12:55 AM 75.2 °F - 55.4 °F 50% 29.91 in 10.0 mi SE 10.4 mph - N/A   Partly Cloudy
1:15 AM 75.2 °F - 55.4 °F 50% 29.93 in 10.0 mi SE 11.5 mph - N/A   Clear
1:35 AM 75.2 °F - 57.2 °F 53% 29.94 in 10.0 mi SE 16.1 mph 23.0 mph N/A   Clear
1:55 AM 75.2 °F - 59.0 °F 57% 29.94 in 10.0 mi SE 16.1 mph - N/A   Partly Cloudy
2:15 AM 73.4 °F - 59.0 °F 61% 29.94 in 10.0 mi SSE 13.8 mph - N/A   Clear
2:35 AM 73.4 °F - 59.0 °F 61% 29.93 in 10.0 mi SSE 20.7 mph - N/A   Clear
2:55 AM 73.4 °F - 59.0 °F 61% 29.94 in 10.0 mi SE 13.8 mph - N/A   Clear
3:15 AM 73.4 °F - 59.0 °F 61% 29.94 in 10.0 mi South 8.1 mph - N/A   Partly Cloudy
3:35 AM 71.6 °F - 57.2 °F 60% 29.94 in 10.0 mi Calm Calm - N/A   Clear
3:55 AM 71.6 °F - 59.0 °F 64% 29.94 in 10.0 mi Calm Calm - N/A   Clear
4:15 AM 71.6 °F - 57.2 °F 60% 29.94 in 10.0 mi Calm Calm - N/A   Clear
4:35 AM 71.6 °F - 59.0 °F 64% 29.96 in 10.0 mi ESE 6.9 mph - N/A   Clear
4:55 AM 71.6 °F - 59.0 °F 64% 29.96 in 10.0 mi SE 5.8 mph - N/A   Clear
5:15 AM 71.6 °F - 57.2 °F 60% 29.96 in 10.0 mi ESE 6.9 mph - N/A   Mostly Cloudy
5:35 AM 71.6 °F - 59.0 °F 64% 29.97 in 10.0 mi ESE 4.6 mph - N/A   Mostly Cloudy
5:55 AM 71.6 °F - 59.0 °F 64% 29.97 in 10.0 mi East 5.8 mph - N/A   Mostly Cloudy
6:35 AM 71.6 °F - 59.0 °F 64% 29.97 in 10.0 mi ESE 9.2 mph - N/A   Mostly Cloudy
6:55 AM 71.6 °F - 59.0 °F 64% 29.98 in 10.0 mi SE 9.2 mph - N/A   Scattered Clouds
7:15 AM 71.6 °F - 59.0 °F 64% 29.98 in 10.0 mi SE 9.2 mph - N/A   Partly Cloudy
7:35 AM 71.6 °F - 57.2 °F 60% 29.99 in 10.0 mi SE 10.4 mph - N/A   Partly Cloudy
7:55 AM 71.6 °F - 55.4 °F 57% 29.99 in 10.0 mi SE 8.1 mph - N/A   Scattered Clouds
8:15 AM 71.6 °F - 55.4 °F 57% 30.00 in 10.0 mi SE 5.8 mph - N/A   Scattered Clouds
8:35 AM 75.2 °F - 55.4 °F 50% 30.01 in 10.0 mi Variable 6.9 mph - N/A   Partly Cloudy
8:55 AM 75.2 °F - 55.4 °F 50% 30.01 in 10.0 mi ESE 10.4 mph - N/A   Clear
9:15 AM 75.2 °F - 53.6 °F 47% 30.01 in 10.0 mi SE 11.5 mph - N/A   Clear
9:35 AM 77.0 °F - 55.4 °F 47% 30.01 in 10.0 mi SSE 13.8 mph - N/A   Clear
9:55 AM 75.2 °F - 55.4 °F 50% 30.01 in 10.0 mi SE 11.5 mph - N/A   Clear
10:15 AM 77.0 °F - 55.4 °F 47% 30.01 in 10.0 mi SSE 13.8 mph - N/A   Clear
10:35 AM 77.0 °F - 55.4 °F 47% 30.00 in 10.0 mi SSE 12.7 mph - N/A   Partly Cloudy
10:55 AM 78.8 °F - 55.4 °F 44% 30.00 in 10.0 mi Variable 3.5 mph 16.1 mph N/A   Partly Cloudy
11:15 AM 80.6 °F 80.5 °F 55.4 °F 42% 29.99 in 10.0 mi SE 8.1 mph 16.1 mph N/A   Partly Cloudy
11:35 AM 80.6 °F 80.5 °F 55.4 °F 42% 29.99 in 10.0 mi SE 8.1 mph 16.1 mph N/A   Clear
11:55 AM 82.4 °F 81.7 °F 55.4 °F 39% 29.98 in 10.0 mi SSE 11.5 mph - N/A   Partly Cloudy
12:15 PM 82.4 °F 81.7 °F 55.4 °F 39% 29.98 in 10.0 mi SSE 11.5 mph 20.7 mph N/A   Scattered Clouds
12:35 PM 84.2 °F 83.0 °F 55.4 °F 37% 29.97 in 10.0 mi South 12.7 mph 19.6 mph N/A   Clear
12:55 PM 84.2 °F 83.0 °F 55.4 °F 37% 29.95 in 10.0 mi South 16.1 mph 23.0 mph N/A   Clear
1:15 PM 82.4 °F 81.7 °F 55.4 °F 39% 29.94 in 10.0 mi SE 15.0 mph 21.9 mph N/A   Clear
1:35 PM 84.2 °F 82.8 °F 53.6 °F 35% 29.93 in 10.0 mi SSE 11.5 mph - N/A   Clear
1:55 PM 82.4 °F 81.4 °F 53.6 °F 37% 29.93 in 10.0 mi SE 13.8 mph - N/A   Partly Cloudy
2:35 PM 82.4 °F 81.4 °F 53.6 °F 37% 29.91 in 10.0 mi SSE 11.5 mph - N/A   Scattered Clouds
2:55 PM 82.4 °F - 51.8 °F 35% 29.91 in 10.0 mi SE 15.0 mph - N/A   Mostly Cloudy
3:15 PM 82.4 °F - 51.8 °F 35% 29.90 in 10.0 mi SSE 13.8 mph - N/A   Mostly Cloudy
3:35 PM 82.4 °F - 51.8 °F 35% 29.90 in 10.0 mi SSE 12.7 mph - N/A   Mostly Cloudy
3:55 PM 82.4 °F 81.4 °F 53.6 °F 37% 29.89 in 10.0 mi SSE 13.8 mph 19.6 mph N/A   Mostly Cloudy
4:15 PM 82.4 °F 81.4 °F 53.6 °F 37% 29.88 in 10.0 mi SSE 15.0 mph - N/A   Partly Cloudy
4:35 PM 82.4 °F 81.4 °F 53.6 °F 37% 29.88 in 10.0 mi SSE 16.1 mph - N/A   Clear
4:55 PM 82.4 °F 81.4 °F 53.6 °F 37% 29.88 in 10.0 mi SSE 15.0 mph - N/A   Clear
5:15 PM 82.4 °F 81.4 °F 53.6 °F 37% 29.88 in 10.0 mi SSE 15.0 mph - N/A   Clear
5:35 PM 82.4 °F 81.4 °F 53.6 °F 37% 29.87 in 10.0 mi SSE 15.0 mph - N/A   Clear
5:55 PM 80.6 °F 80.3 °F 53.6 °F 39% 29.87 in 10.0 mi SSE 15.0 mph 20.7 mph N/A   Clear
6:15 PM 80.6 °F 80.3 °F 53.6 °F 39% 29.88 in 10.0 mi SSE 15.0 mph - N/A   Clear
6:35 PM 78.8 °F - 51.8 °F 39% 29.88 in 10.0 mi SSE 17.3 mph - N/A   Clear
6:55 PM 78.8 °F - 51.8 °F 39% 29.88 in 10.0 mi SSE 13.8 mph 19.6 mph N/A   Clear
7:15 PM 78.8 °F - 51.8 °F 39% 29.88 in 10.0 mi SSE 12.7 mph - N/A   Clear
7:35 PM 77.0 °F - 51.8 °F 41% 29.89 in 10.0 mi SSE 8.1 mph 15.0 mph N/A   Clear
7:55 PM 77.0 °F - 50.0 °F 39% 29.89 in 10.0 mi SSE 6.9 mph - N/A   Clear
8:15 PM 77.0 °F - 51.8 °F 41% 29.90 in 10.0 mi SSE 9.2 mph - N/A   Clear
8:35 PM 77.0 °F - 51.8 °F 41% 29.90 in 10.0 mi SSE 4.6 mph - N/A   Clear
8:55 PM 75.2 °F - 53.6 °F 47% 29.91 in 10.0 mi SSW 4.6 mph - N/A   Clear
9:15 PM 75.2 °F - 53.6 °F 47% 29.91 in 10.0 mi South 9.2 mph - N/A   Clear
9:35 PM 75.2 °F - 55.4 °F 50% 29.91 in 10.0 mi South 9.2 mph - N/A   Clear
9:55 PM 73.4 °F - 55.4 °F 53% 29.90 in 10.0 mi South 6.9 mph 15.0 mph N/A   Clear
10:15 PM 73.4 °F - 55.4 °F 53% 29.90 in 10.0 mi South 3.5 mph - N/A   Clear
10:35 PM 73.4 °F - 55.4 °F 53% 29.90 in 10.0 mi South 6.9 mph 12.7 mph N/A   Clear
10:55 PM 73.4 °F - 55.4 °F 53% 29.90 in 10.0 mi SE 5.8 mph 13.8 mph N/A   Clear
11:15 PM 73.4 °F - 57.2 °F 57% 29.90 in 10.0 mi SSE 9.2 mph - N/A   Clear
11:35 PM 71.6 °F - 55.4 °F 57% 29.89 in 10.0 mi ESE 5.8 mph - N/A   Partly Cloudy
11:55 PM 71.6 °F - 57.2 °F 60% 29.89 in 10.0 mi ESE 8.1 mph - N/A   Clear